IGO5306 VOBL-VOML

Flight info

Callsign IGO5306
Flight time N/A
Altitude 28000
Route PEXEG8A PEXEG DCT LUMBU
Aircraft A320/M-SDE3FGHIRWY/LB1

Departure

Time N/A
Airport Kempegowda International Airport Bengaluru (VOBL)

Arrival

Time 2026-04-24 14:49
Airport Mangaluru International Airport (VOML)
Time Latitude Longitude Altitude Speed Heading
2026-04-24 14:24 13.18877 77.14084 20139 ft 389 kts 263°
2026-04-24 14:25 13.18589 77.11320 20642 ft 391 kts 263°
2026-04-24 14:25 13.18297 77.08537 21136 ft 393 kts 263°
2026-04-24 14:25 13.18001 77.05738 21618 ft 395 kts 263°
2026-04-24 14:25 13.17702 77.02925 22091 ft 398 kts 262°
2026-04-24 14:26 13.17400 77.00099 22572 ft 400 kts 262°
2026-04-24 14:26 13.17097 76.97245 23053 ft 403 kts 263°
2026-04-24 14:26 13.16796 76.94379 23513 ft 406 kts 263°
2026-04-24 14:26 13.16495 76.91497 23902 ft 407 kts 262°
2026-04-24 14:27 13.16192 76.88603 24328 ft 408 kts 262°
2026-04-24 14:27 13.15886 76.85700 24653 ft 413 kts 262°
2026-04-24 14:27 13.15572 76.82735 24783 ft 422 kts 262°
2026-04-24 14:27 13.15258 76.79709 24887 ft 430 kts 262°
2026-04-24 14:28 13.14945 76.76628 24926 ft 440 kts 262°
2026-04-24 14:28 13.14628 76.73470 24923 ft 449 kts 262°
2026-04-24 14:28 13.14307 76.70267 24923 ft 452 kts 262°
2026-04-24 14:28 13.13984 76.67056 24922 ft 453 kts 262°
2026-04-24 14:29 13.13657 76.63843 24926 ft 453 kts 262°
2026-04-24 14:29 13.13326 76.60629 24926 ft 453 kts 262°
2026-04-24 14:29 13.12993 76.57414 24925 ft 453 kts 262°
2026-04-24 14:29 13.12661 76.54198 24925 ft 453 kts 262°
2026-04-24 14:30 13.12441 76.52064 24928 ft 453 kts 262°
2026-04-24 14:30 13.11999 76.47765 24934 ft 454 kts 262°
2026-04-24 14:30 13.11667 76.44537 24932 ft 454 kts 262°
2026-04-24 14:30 13.11336 76.41319 24839 ft 452 kts 262°
2026-04-24 14:31 13.11009 76.38136 24159 ft 447 kts 263°
2026-04-24 14:31 13.10683 76.34975 23424 ft 444 kts 263°
2026-04-24 14:31 13.10358 76.31836 22565 ft 442 kts 263°
2026-04-24 14:31 13.10036 76.28717 21763 ft 439 kts 263°
2026-04-24 14:32 13.09716 76.25613 20987 ft 435 kts 263°
2026-04-24 14:32 13.09398 76.22543 20222 ft 432 kts 263°
2026-04-24 14:32 13.09079 76.19488 19494 ft 430 kts 262°
2026-04-24 14:32 13.08761 76.16446 18773 ft 428 kts 263°
2026-04-24 14:33 13.08445 76.13415 18051 ft 427 kts 263°
2026-04-24 14:33 13.08127 76.10392 17384 ft 426 kts 263°
2026-04-24 14:33 13.07810 76.07366 16899 ft 427 kts 263°
2026-04-24 14:33 13.07498 76.04363 16412 ft 420 kts 263°
2026-04-24 14:34 13.07192 76.01413 15919 ft 412 kts 263°
2026-04-24 14:34 13.06891 75.98516 15462 ft 405 kts 263°
2026-04-24 14:34 13.06593 75.95680 15108 ft 395 kts 263°
2026-04-24 14:34 13.06302 75.92910 14767 ft 386 kts 263°
2026-04-24 14:35 13.06017 75.90199 14429 ft 379 kts 264°
2026-04-24 14:35 13.05902 75.87531 14094 ft 372 kts 270°
2026-04-24 14:35 13.05909 75.84892 13744 ft 366 kts 271°
2026-04-24 14:35 13.05937 75.82299 13365 ft 362 kts 271°
2026-04-24 14:36 13.05976 75.79735 12987 ft 358 kts 271°
2026-04-24 14:36 13.06017 75.77195 12601 ft 354 kts 271°
2026-04-24 14:36 13.06056 75.74683 12233 ft 351 kts 271°
2026-04-24 14:36 13.06090 75.72187 11865 ft 348 kts 271°
2026-04-24 14:37 13.06121 75.69710 11508 ft 346 kts 271°
2026-04-24 14:37 13.06149 75.67252 11151 ft 344 kts 270°
2026-04-24 14:37 13.06177 75.64810 10798 ft 341 kts 270°
2026-04-24 14:37 13.06203 75.62383 10434 ft 340 kts 270°
2026-04-24 14:38 13.06228 75.59969 10094 ft 338 kts 270°
2026-04-24 14:38 13.06251 75.57567 9748 ft 336 kts 270°
2026-04-24 14:38 13.06276 75.55177 9374 ft 334 kts 270°
2026-04-24 14:38 13.06301 75.52800 8997 ft 332 kts 270°
2026-04-24 14:39 13.06324 75.50445 8628 ft 328 kts 271°
2026-04-24 14:39 13.06346 75.48145 8247 ft 326 kts 271°
2026-04-24 14:39 13.06373 75.45827 7890 ft 325 kts 271°
2026-04-24 14:39 13.06401 75.43488 7521 ft 323 kts 270°
2026-04-24 14:40 13.06426 75.41195 7205 ft 320 kts 271°
2026-04-24 14:40 13.06449 75.38926 6901 ft 316 kts 270°
2026-04-24 14:40 13.06470 75.36682 6603 ft 313 kts 271°
2026-04-24 14:40 13.06489 75.34463 6281 ft 310 kts 271°
2026-04-24 14:41 13.06507 75.32269 5965 ft 306 kts 271°
2026-04-24 14:41 13.06525 75.30095 5661 ft 303 kts 271°
2026-04-24 14:41 13.06543 75.27944 5346 ft 300 kts 271°
2026-04-24 14:41 13.06563 75.25816 5035 ft 296 kts 271°
2026-04-24 14:42 13.06577 75.24441 4833 ft 286 kts 271°
2026-04-24 14:42 13.06603 75.21827 4438 ft 268 kts 270°
2026-04-24 14:42 13.06621 75.19959 4099 ft 256 kts 270°
2026-04-24 14:42 13.06637 75.18147 3783 ft 246 kts 270°
2026-04-24 14:43 13.06652 75.16434 3473 ft 236 kts 270°
2026-04-24 14:43 13.06666 75.14807 3169 ft 227 kts 270°
2026-04-24 14:43 13.06682 75.13172 2854 ft 226 kts 270°
2026-04-24 14:43 13.06695 75.11559 2551 ft 225 kts 271°
2026-04-24 14:44 13.06708 75.10004 2430 ft 215 kts 271°
2026-04-24 14:44 13.06720 75.08521 2428 ft 201 kts 270°
2026-04-24 14:44 13.06516 75.07148 2432 ft 193 kts 250°
2026-04-24 14:44 13.05879 75.05953 2419 ft 191 kts 239°
2026-04-24 14:45 13.05180 75.04793 2411 ft 192 kts 239°
2026-04-24 14:45 13.04476 75.03624 2414 ft 193 kts 239°
2026-04-24 14:45 13.03769 75.02451 2413 ft 193 kts 239°
2026-04-24 14:45 13.03066 75.01285 2436 ft 192 kts 239°
2026-04-24 14:46 13.02394 75.00171 2415 ft 175 kts 241°
2026-04-24 14:46 13.01778 74.99150 2305 ft 162 kts 239°
2026-04-24 14:46 13.01203 74.98196 2131 ft 154 kts 239°
2026-04-24 14:46 13.00653 74.97282 1985 ft 146 kts 239°
2026-04-24 14:47 13.00305 74.96705 1857 ft 143 kts 242°
2026-04-24 14:47 12.99614 74.95560 1616 ft 139 kts 241°
2026-04-24 14:47 12.99107 74.94718 1422 ft 139 kts 239°
2026-04-24 14:47 12.98601 74.93880 1262 ft 137 kts 242°
2026-04-24 14:48 12.98100 74.93049 1094 ft 138 kts 241°
2026-04-24 14:48 12.97597 74.92214 925 ft 136 kts 240°
2026-04-24 14:48 12.97102 74.91391 758 ft 136 kts 239°
2026-04-24 14:48 12.96781 74.90838 625 ft 137 kts 238°
2026-04-24 14:49 12.96283 74.90014 454 ft 136 kts 237°
2026-04-24 14:49 12.95777 74.89202 324 ft 128 kts 236°
2026-04-24 14:49 12.95462 74.88680 321 ft 43 kts 238°
2026-04-24 14:49 12.95264 74.88350 324 ft 40 kts 237°
2026-04-24 14:50 12.95169 74.88191 325 ft 40 kts 238°
2026-04-24 14:50 12.95021 74.87948 324 ft 41 kts 239°
2026-04-24 14:50 12.94884 74.87715 322 ft 27 kts 238°
2026-04-24 14:50 12.94898 74.87651 322 ft 7 kts 353°